Time,TemperatureF,DewpointF,PressureIn,WindDirection,WindDirectionDegrees,WindSpeedMPH,WindSpeedGustMPH,Humidity,HourlyPrecipIn,Conditions,Clouds,dailyrainin,SoftwareType,DateUTC
2013-02-28 00:02:00,35.0,34.0,-100.00,West,270,1.0,5.0,97,-99.99,,,-99.99,,2013-02-28 05:02:00,
2013-02-28 00:11:00,35.0,34.0,-100.00,NNW,330,0.0,3.0,97,-99.99,,,-99.99,,2013-02-28 05:11:00,
2013-02-28 00:22:00,35.0,34.0,-100.00,NNE,20,0.0,3.0,97,-99.99,,,-99.99,,2013-02-28 05:22:00,
2013-02-28 00:32:00,34.0,34.0,-100.00,West,265,0.0,3.0,97,-99.99,,,-99.99,,2013-02-28 05:32:00,
2013-02-28 00:42:00,35.0,34.0,-100.00,NNW,345,1.0,3.0,97,-99.99,,,-99.99,,2013-02-28 05:42:00,
2013-02-28 00:52:00,34.0,34.0,-100.00,North,355,1.0,5.0,97,-99.99,,,-99.99,,2013-02-28 05:52:00,
2013-02-28 01:02:00,34.0,34.0,-100.00,West,270,0.0,5.0,97,-99.99,,,-99.99,,2013-02-28 06:02:00,
2013-02-28 01:11:00,34.0,34.0,-100.00,NNW,335,1.0,5.0,97,-99.99,,,-99.99,,2013-02-28 06:11:00,
2013-02-28 01:22:00,34.0,34.0,-100.00,North,5,2.0,7.0,97,-99.99,,,-99.99,,2013-02-28 06:22:00,
2013-02-28 01:32:00,35.0,34.0,-100.00,NNW,340,1.0,5.0,97,-99.99,,,-99.99,,2013-02-28 06:32:00,
2013-02-28 01:42:00,34.0,34.0,-100.00,WNW,290,1.0,6.0,97,-99.99,,,-99.99,,2013-02-28 06:42:00,
2013-02-28 01:52:00,34.0,34.0,-100.00,NW,315,0.0,3.0,98,-99.99,,,-99.99,,2013-02-28 06:52:00,
2013-02-28 02:01:00,34.0,33.0,-100.00,NW,315,1.0,3.0,97,-99.99,,,-99.99,,2013-02-28 07:01:00,
2013-02-28 02:11:00,34.0,33.0,-100.00,West,275,1.0,9.0,97,-99.99,,,-99.99,,2013-02-28 07:11:00,
2013-02-28 02:22:00,34.0,33.0,-100.00,NNW,340,1.0,5.0,97,-99.99,,,-99.99,,2013-02-28 07:22:00,
2013-02-28 02:32:00,34.0,33.0,-100.00,West,275,1.0,7.0,98,-99.99,,,-99.99,,2013-02-28 07:32:00,
2013-02-28 02:42:00,34.0,33.0,-100.00,NNE,25,0.0,5.0,97,-99.99,,,-99.99,,2013-02-28 07:42:00,
2013-02-28 02:52:00,34.0,33.0,-100.00,West,275,0.0,3.0,98,-99.99,,,-99.99,,2013-02-28 07:52:00,
2013-02-28 03:01:00,34.0,33.0,-100.00,NW,320,0.0,2.0,97,-99.99,,,-99.99,,2013-02-28 08:01:00,
2013-02-28 03:12:00,34.0,33.0,-100.00,WSW,250,0.0,3.0,97,-99.99,,,-99.99,,2013-02-28 08:12:00,
2013-02-28 03:22:00,33.0,33.0,-100.00,West,270,1.0,3.0,97,-99.99,,,-99.99,,2013-02-28 08:22:00,
2013-02-28 03:32:00,33.0,32.0,-100.00,SW,230,0.0,2.0,97,-99.99,,,-99.99,,2013-02-28 08:32:00,
2013-02-28 03:42:00,33.0,32.0,-100.00,WNW,300,0.0,2.0,97,-99.99,,,-99.99,,2013-02-28 08:42:00,
2013-02-28 03:52:00,33.0,33.0,-100.00,WNW,285,0.0,1.0,97,-99.99,,,-99.99,,2013-02-28 08:52:00,
2013-02-28 04:04:00,33.0,33.0,-100.00,WSW,255,0.0,1.0,97,-99.99,,,-99.99,,2013-02-28 09:04:00,
2013-02-28 04:12:00,33.0,33.0,-100.00,North,0,0.0,1.0,98,-99.99,,,-99.99,,2013-02-28 09:12:00,
2013-02-28 04:22:00,33.0,32.0,-100.00,South,190,0.0,0.0,97,-99.99,,,-99.99,,2013-02-28 09:22:00,
2013-02-28 04:30:00,33.0,32.0,-100.00,West,265,0.0,1.0,97,-99.99,,,-99.99,,2013-02-28 09:30:00,
2013-02-28 04:32:00,33.0,32.0,-100.00,NNW,335,0.0,1.0,97,-99.99,,,-99.99,,2013-02-28 09:32:00,
2013-02-28 04:42:00,33.0,33.0,-100.00,West,275,0.0,1.0,98,-99.99,,,-99.99,,2013-02-28 09:42:00,
2013-02-28 04:52:00,33.0,32.0,-100.00,SSW,205,0.0,1.0,97,-99.99,,,-99.99,,2013-02-28 09:52:00,
2013-02-28 05:02:00,33.0,32.0,-100.00,SSW,205,0.0,1.0,97,-99.99,,,-99.99,,2013-02-28 10:02:00,
2013-02-28 05:12:00,33.0,32.0,-100.00,West,265,0.0,1.0,97,-99.99,,,-99.99,,2013-02-28 10:12:00,
2013-02-28 05:22:00,33.0,32.0,-100.00,West,265,0.0,1.0,97,-99.99,,,-99.99,,2013-02-28 10:22:00,
2013-02-28 08:32:00,36.0,35.0,-100.00,South,185,1.0,2.0,98,-99.99,,,-99.99,,2013-02-28 13:32:00,
2013-02-28 14:32:00,46.0,-99.9,-100.00,WNW,290,1.0,5.0,-999,-99.99,,,-99.99,,2013-02-28 19:32:00,
2013-02-28 15:32:00,45.0,36.0,-100.00,West,280,0.0,2.0,71,-99.99,,,-99.99,,2013-02-28 20:32:00,